When you browse on this site, cookies collect data to enhance your experience and personalize the content and advertising you see.
Visit our Privacy Policy to learn more. By continuing to use the site, you agree to this use of cookies and data.
  • In Spain
  • List of Countries
  • For 7 days
  • Water Temperature
  • Weather Map
  • Weather Widgets
  • user-avatar
    Login

    Hourly Weather Yasnoe Utro

    Today, 17 February, Monday

    Time Temperature Precipitation Wind Pressure Humidity
    00:00 -3°C° 0 mm 9 mps 751 mmHg 90%
    01:00 -3°C° 0 mm 9 mps 750 mmHg 89%
    02:00 -3°C° 0 mm 9 mps 750 mmHg 87%
    03:00 -3°C° 0 mm 9 mps 749 mmHg 86%
    04:00 -3°C° 0 mm 9 mps 749 mmHg 84%
    05:00 -4°C° 0 mm 9 mps 748 mmHg 83%
    06:00 -4°C° 0 mm 9 mps 748 mmHg 82%
    07:00 -3°C° 0 mm 9 mps 748 mmHg 81%
    08:00 -3°C° 0 mm 10 mps 748 mmHg 81%
    09:00 -3°C° 0 mm 10 mps 747 mmHg 80%
    10:00 -3°C° 0 mm 10 mps 747 mmHg 79%
    11:00 -3°C° 0 mm 10 mps 746 mmHg 79%
    12:00 -2°C° 0 mm 10 mps 746 mmHg 80%
    13:00 -2°C° 0 mm 10 mps 746 mmHg 80%
    14:00 -2°C° 0 mm 10 mps 746 mmHg 81%
    15:00 -2°C° 0 mm 10 mps 746 mmHg 80%
    16:00 -1°C° 0 mm 9 mps 746 mmHg 79%
    17:00 -1°C° 0 mm 9 mps 745 mmHg 78%
    18:00 -1°C° 0 mm 9 mps 746 mmHg 79%
    19:00 -1°C° 0 mm 8 mps 746 mmHg 80%
    20:00 -1°C° 0 mm 8 mps 746 mmHg 80%
    21:00 -1°C° 0 mm 8 mps 746 mmHg 82%
    22:00 -1°C° 0 mm 7 mps 746 mmHg 84%
    23:00 -1°C° 0 mm 7 mps 746 mmHg 87%

    Tomorrow, 18 February, Tuesday

    Time Temperature Precipitation Wind Pressure Humidity
    00:00 -1°C° 0.2 mm 6 mps 746 mmHg 89%
    01:00 -1°C° 0.2 mm 6 mps 746 mmHg 92%
    02:00 0°C° 0.2 mm 5 mps 747 mmHg 95%
    03:00 -1°C° 0.5 mm 5 mps 746 mmHg 96%
    04:00 -1°C° 0.5 mm 5 mps 746 mmHg 97%
    05:00 -1°C° 0.5 mm 5 mps 745 mmHg 97%
    06:00 -1°C° 1 mm 5 mps 745 mmHg 98%
    07:00 -1°C° 1 mm 5 mps 746 mmHg 98%
    08:00 -1°C° 1 mm 5 mps 746 mmHg 98%
    09:00 -1°C° 0.6 mm 4 mps 745 mmHg 98%
    10:00 -1°C° 0.6 mm 4 mps 745 mmHg 98%
    11:00 -1°C° 0.6 mm 4 mps 744 mmHg 98%
    12:00 -1°C° 0.3 mm 4 mps 744 mmHg 98%
    13:00 -1°C° 0.3 mm 4 mps 744 mmHg 98%
    14:00 -1°C° 0.3 mm 4 mps 743 mmHg 98%
    15:00 -1°C° 0.3 mm 4 mps 743 mmHg 98%
    16:00 -1°C° 0.3 mm 5 mps 742 mmHg 98%
    17:00 -1°C° 0.3 mm 5 mps 742 mmHg 97%
    18:00 -1°C° 0.4 mm 5 mps 742 mmHg 98%
    19:00 -1°C° 0.4 mm 4 mps 742 mmHg 98%
    20:00 -1°C° 0.4 mm 4 mps 742 mmHg 98%
    21:00 -1°C° 0.2 mm 4 mps 742 mmHg 98%
    22:00 -1°C° 0.2 mm 4 mps 742 mmHg 98%
    23:00 0°C° 0.2 mm 4 mps 742 mmHg 98%

    Day after tomorrow, 19 February, Wednesday

    Time Temperature Precipitation Wind Pressure Humidity
    00:00 -1°C° 0 mm 4 mps 742 mmHg 97%
    01:00 -1°C° 0 mm 4 mps 742 mmHg 95%
    02:00 0°C° 0 mm 3 mps 743 mmHg 93%
    03:00 -1°C° 0 mm 4 mps 743 mmHg 94%
    04:00 -1°C° 0 mm 4 mps 743 mmHg 94%
    05:00 -1°C° 0 mm 4 mps 743 mmHg 94%
    06:00 -2°C° 0 mm 4 mps 743 mmHg 95%
    07:00 -2°C° 0 mm 4 mps 743 mmHg 95%
    08:00 -2°C° 0 mm 4 mps 744 mmHg 95%
    09:00 -1°C° 0 mm 4 mps 744 mmHg 95%
    10:00 -1°C° 0 mm 4 mps 744 mmHg 96%
    11:00 -1°C° 0 mm 5 mps 744 mmHg 97%
    12:00 -1°C° 0 mm 4 mps 744 mmHg 95%
    13:00 -1°C° 0 mm 4 mps 744 mmHg 94%
    14:00 0°C° 0 mm 4 mps 745 mmHg 92%
    15:00 -1°C° 0 mm 4 mps 745 mmHg 91%
    16:00 0°C° 0 mm 3 mps 745 mmHg 90%
    17:00 0°C° 0 mm 3 mps 745 mmHg 88%
    18:00 -1°C° 0 mm 3 mps 745 mmHg 88%
    19:00 -1°C° 0 mm 3 mps 745 mmHg 88%
    20:00 -1°C° 0 mm 3 mps 746 mmHg 88%
    21:00 -1°C° 0 mm 3 mps 746 mmHg 88%
    22:00 -1°C° 0 mm 3 mps 746 mmHg 87%
    23:00 -1°C° 0 mm 2 mps 746 mmHg 87%

    20 February, Thursday

    Time Temperature Precipitation Wind Pressure Humidity
    00:00 -2°C° 0 mm 2 mps 746 mmHg 87%
    01:00 -2°C° 0 mm 2 mps 746 mmHg 88%
    02:00 -2°C° 0 mm 2 mps 746 mmHg 88%
    03:00 -2°C° 0 mm 2 mps 746 mmHg 88%
    04:00 -2°C° 0 mm 3 mps 746 mmHg 88%
    05:00 -2°C° 0 mm 3 mps 746 mmHg 88%
    06:00 -2°C° 0 mm 3 mps 746 mmHg 89%
    07:00 -2°C° 0 mm 3 mps 746 mmHg 89%
    08:00 -2°C° 0 mm 3 mps 747 mmHg 89%
    09:00 -1°C° 0 mm 3 mps 747 mmHg 90%
    10:00 -1°C° 0 mm 3 mps 747 mmHg 90%
    11:00 0°C° 0 mm 3 mps 747 mmHg 90%
    12:00 0°C° 0 mm 3 mps 747 mmHg 91%
    13:00 0°C° 0 mm 3 mps 747 mmHg 92%
    14:00 0°C° 0 mm 3 mps 747 mmHg 93%
    15:00 0°C° 0 mm 3 mps 747 mmHg 93%
    16:00 -1°C° 0 mm 3 mps 747 mmHg 94%
    17:00 -1°C° 0 mm 3 mps 747 mmHg 94%
    18:00 -2°C° 0 mm 3 mps 747 mmHg 94%
    19:00 -2°C° 0 mm 3 mps 747 mmHg 94%
    20:00 -2°C° 0 mm 3 mps 748 mmHg 94%
    21:00 -2°C° 0 mm 2 mps 748 mmHg 95%
    22:00 -2°C° 0 mm 2 mps 748 mmHg 95%
    23:00 -2°C° 0 mm 2 mps 748 mmHg 96%

    21 February, Friday

    Time Temperature Precipitation Wind Pressure Humidity
    00:00 -2°C° 0.1 mm 2 mps 748 mmHg 97%
    01:00 -2°C° 0.1 mm 2 mps 748 mmHg 97%
    02:00 -2°C° 0.1 mm 2 mps 748 mmHg 98%
    03:00 -2°C° 0.1 mm 2 mps 748 mmHg 98%
    04:00 0°C° 0.1 mm 1 mps 748 mmHg 98%
    05:00 0°C° 0.1 mm 1 mps 749 mmHg 98%
    06:00 0°C° 0.1 mm 1 mps 749 mmHg 98%
    07:00 +1°C° 0.1 mm 1 mps 749 mmHg 98%
    08:00 +1°C° 0.1 mm 1 mps 749 mmHg 98%
    15:00 +2°C° 0 mm 1 mps 749 mmHg 98%
    16:00 +1°C° 0 mm 1 mps 749 mmHg 97%
    17:00 +1°C° 0 mm 1 mps 749 mmHg 97%
    18:00 +1°C° 0 mm 1 mps 749 mmHg 97%
    19:00 -1°C° 0 mm 2 mps 749 mmHg 97%
    20:00 -2°C° 0 mm 2 mps 749 mmHg 96%
    21:00 -2°C° 0 mm 2 mps 749 mmHg 96%
    22:00 -2°C° 0 mm 2 mps 749 mmHg 96%
    23:00 -2°C° 0 mm 2 mps 749 mmHg 96%

    22 February, Saturday

    Time Temperature Precipitation Wind Pressure Humidity
    00:00 -2°C° 0 mm 2 mps 749 mmHg 95%
    01:00 -2°C° 0 mm 2 mps 749 mmHg 95%
    02:00 -2°C° 0 mm 2 mps 749 mmHg 94%
    03:00 -2°C° 0 mm 3 mps 748 mmHg 94%
    04:00 -2°C° 0 mm 3 mps 748 mmHg 95%
    05:00 -2°C° 0 mm 3 mps 748 mmHg 95%
    06:00 -2°C° 0 mm 3 mps 748 mmHg 95%
    07:00 -3°C° 0 mm 4 mps 747 mmHg 95%
    08:00 -3°C° 0 mm 4 mps 747 mmHg 95%
    09:00 -2°C° 0 mm 5 mps 747 mmHg 94%
    10:00 -2°C° 0 mm 5 mps 747 mmHg 93%
    11:00 -3°C° 0 mm 6 mps 746 mmHg 92%
    12:00 -2°C° 0 mm 6 mps 746 mmHg 92%
    13:00 -2°C° 0 mm 6 mps 745 mmHg 92%
    14:00 -2°C° 0 mm 6 mps 744 mmHg 92%
    15:00 -2°C° 0.1 mm 6 mps 744 mmHg 94%
    16:00 -2°C° 0.1 mm 6 mps 743 mmHg 95%
    17:00 -2°C° 0.1 mm 6 mps 742 mmHg 97%
    18:00 -3°C° 0.1 mm 6 mps 742 mmHg 97%
    19:00 -3°C° 0.1 mm 6 mps 741 mmHg 97%
    20:00 -3°C° 0.1 mm 6 mps 741 mmHg 97%
    21:00 -3°C° 0.1 mm 6 mps 740 mmHg 94%
    22:00 -3°C° 0.1 mm 6 mps 739 mmHg 91%
    23:00 -3°C° 0.1 mm 6 mps 738 mmHg 89%
    Show more